Time,TemperatureF,DewpointF,PressureIn,WindDirection,WindDirectionDegrees,WindSpeedMPH,WindSpeedGustMPH,Humidity,HourlyPrecipIn,Conditions,Clouds,dailyrainin,SoftwareType,DateUTC
2013-03-05 00:02:00,48.0,42.0,30.16,SE,142,1.0,3.0,80,99.99,,,-99.99,,2013-03-05 05:02:00,
2013-03-05 00:12:00,48.0,42.0,30.16,SE,142,1.0,3.0,80,99.99,,,-99.99,,2013-03-05 05:12:00,
2013-03-05 00:22:00,47.0,41.0,30.16,SE,125,1.0,3.0,81,99.99,,,-99.99,,2013-03-05 05:22:00,
2013-03-05 00:32:00,46.0,41.0,30.16,North,0,0.0,0.0,84,99.99,,,-99.99,,2013-03-05 05:32:00,
2013-03-05 00:42:00,46.0,41.0,30.16,North,0,0.0,0.0,84,99.99,,,-99.99,,2013-03-05 05:42:00,
2013-03-05 00:52:00,45.0,41.0,30.16,North,0,0.0,0.0,86,99.99,,,-99.99,,2013-03-05 05:52:00,
2013-03-05 01:01:00,44.0,41.0,30.15,SSE,148,1.0,3.0,88,99.99,,,-99.99,,2013-03-05 06:01:00,
2013-03-05 01:11:00,44.0,41.0,30.15,SSE,148,1.0,3.0,88,99.99,,,-99.99,,2013-03-05 06:11:00,
2013-03-05 01:22:00,45.0,43.0,30.15,SSE,148,7.0,9.0,91,99.99,,,-99.99,,2013-03-05 06:22:00,
2013-03-05 01:32:00,48.0,44.0,30.15,SE,143,7.0,9.0,85,99.99,,,-99.99,,2013-03-05 06:32:00,
2013-03-05 01:42:00,48.0,44.0,30.15,SE,143,7.0,9.0,85,99.99,,,-99.99,,2013-03-05 06:42:00,
2013-03-05 01:52:00,48.0,43.0,30.14,SSE,150,5.0,8.0,84,99.99,,,-99.99,,2013-03-05 06:52:00,
2013-03-05 02:01:00,48.0,44.0,30.14,SE,145,6.0,7.0,85,99.99,,,-99.99,,2013-03-05 07:01:00,
2013-03-05 02:11:00,48.0,44.0,30.14,SE,145,6.0,7.0,85,99.99,,,-99.99,,2013-03-05 07:11:00,
2013-03-05 02:22:00,47.0,43.0,30.14,South,169,5.0,8.0,86,99.99,,,-99.99,,2013-03-05 07:22:00,
2013-03-05 02:31:00,47.0,42.0,30.13,SSE,159,7.0,9.0,84,99.99,,,-99.99,,2013-03-05 07:31:00,
2013-03-05 02:41:00,47.0,42.0,30.13,SSE,159,7.0,9.0,84,99.99,,,-99.99,,2013-03-05 07:41:00,
2013-03-05 02:51:00,47.0,43.0,30.13,South,170,6.0,8.0,85,99.99,,,-99.99,,2013-03-05 07:51:00,
2013-03-05 03:02:00,47.0,43.0,30.13,South,170,4.0,8.0,85,99.99,,,-99.99,,2013-03-05 08:02:00,
2013-03-05 03:11:00,47.0,43.0,30.13,South,170,4.0,8.0,85,99.99,,,-99.99,,2013-03-05 08:11:00,
2013-03-05 03:21:00,46.0,42.0,30.14,South,174,3.0,4.0,87,99.99,,,-99.99,,2013-03-05 08:21:00,
2013-03-05 03:31:00,45.0,41.0,30.14,SSE,155,3.0,3.0,87,99.99,,,-99.99,,2013-03-05 08:31:00,
2013-03-05 03:41:00,45.0,41.0,30.14,SSE,155,3.0,3.0,87,99.99,,,-99.99,,2013-03-05 08:41:00,
2013-03-05 03:52:00,45.0,42.0,30.13,South,177,3.0,4.0,89,99.99,,,-99.99,,2013-03-05 08:52:00,
2013-03-05 04:01:00,45.0,43.0,30.13,South,169,5.0,6.0,93,99.99,,,-99.99,,2013-03-05 09:01:00,
2013-03-05 04:11:00,45.0,43.0,30.13,South,173,4.0,6.0,92,99.99,,,-99.99,,2013-03-05 09:11:00,
2013-03-05 04:21:00,45.0,43.0,30.13,South,173,4.0,6.0,92,99.99,,,-99.99,,2013-03-05 09:21:00,
2013-03-05 04:31:00,45.0,43.0,30.13,South,180,3.0,6.0,93,99.99,,,-99.99,,2013-03-05 09:31:00,
2013-03-05 04:42:00,45.0,43.0,30.13,South,180,3.0,6.0,93,99.99,,,-99.99,,2013-03-05 09:42:00,
2013-03-05 04:52:00,46.0,44.0,30.13,South,177,4.0,5.0,94,99.99,,,-99.99,,2013-03-05 09:52:00,
2013-03-05 05:01:00,45.0,44.0,30.14,South,176,4.0,6.0,95,99.99,,,-99.99,,2013-03-05 10:01:00,
2013-03-05 05:11:00,45.0,44.0,30.14,South,176,4.0,6.0,95,99.99,,,-99.99,,2013-03-05 10:11:00,
2013-03-05 05:21:00,46.0,45.0,30.14,SSE,162,4.0,6.0,96,99.99,,,-99.99,,2013-03-05 10:21:00,
2013-03-05 05:32:00,46.0,45.0,30.14,South,170,3.0,4.0,96,99.99,,,-99.99,,2013-03-05 10:32:00,
2013-03-05 05:42:00,46.0,45.0,30.14,South,170,3.0,4.0,96,99.99,,,-99.99,,2013-03-05 10:42:00,
2013-03-05 05:52:00,45.0,44.0,30.14,SSE,165,4.0,5.0,96,99.99,,,-99.99,,2013-03-05 10:52:00,
2013-03-05 06:01:00,45.0,44.0,30.14,South,174,4.0,5.0,97,99.99,,,-99.99,,2013-03-05 11:01:00,
2013-03-05 06:11:00,45.0,44.0,30.14,SSE,163,5.0,7.0,98,99.99,,,-99.99,,2013-03-05 11:11:00,
2013-03-05 06:22:00,45.0,44.0,30.14,SSE,163,5.0,7.0,98,99.99,,,-99.99,,2013-03-05 11:22:00,
2013-03-05 06:32:00,44.0,43.0,30.14,SSE,160,2.0,5.0,98,99.99,,,-99.99,,2013-03-05 11:32:00,
2013-03-05 06:42:00,44.0,43.0,30.14,SSE,160,2.0,5.0,98,99.99,,,-99.99,,2013-03-05 11:42:00,
2013-03-05 06:52:00,44.0,43.0,30.15,South,172,4.0,6.0,97,99.99,,,-99.99,,2013-03-05 11:52:00,
2013-03-05 07:02:00,44.0,43.0,30.15,SSE,166,2.0,5.0,98,99.99,,,-99.99,,2013-03-05 12:02:00,
2013-03-05 07:12:00,44.0,43.0,30.15,SSE,166,2.0,5.0,98,99.99,,,-99.99,,2013-03-05 12:12:00,
2013-03-05 07:22:00,45.0,45.0,30.15,South,174,5.0,6.0,99,99.99,,,-99.99,,2013-03-05 12:22:00,
2013-03-05 07:32:00,45.0,45.0,30.16,South,190,2.0,4.0,99,99.99,,,-99.99,,2013-03-05 12:32:00,
2013-03-05 07:42:00,45.0,45.0,30.16,South,190,2.0,4.0,99,99.99,,,-99.99,,2013-03-05 12:42:00,
2013-03-05 07:53:00,46.0,45.0,30.17,SSE,166,5.0,7.0,98,99.99,,,-99.99,,2013-03-05 12:53:00,
2013-03-05 08:02:00,48.0,47.0,30.17,SSE,166,3.0,5.0,98,99.99,,,-99.99,,2013-03-05 13:02:00,
2013-03-05 08:11:00,48.0,47.0,30.17,SSE,166,3.0,5.0,98,99.99,,,-99.99,,2013-03-05 13:11:00,
2013-03-05 08:22:00,49.0,48.0,30.17,South,174,4.0,6.0,95,99.99,,,-99.99,,2013-03-05 13:22:00,
2013-03-05 08:32:00,52.0,47.0,30.17,SSE,167,5.0,8.0,84,99.99,,,-99.99,,2013-03-05 13:32:00,
2013-03-05 08:42:00,52.0,47.0,30.17,SSE,167,5.0,8.0,84,99.99,,,-99.99,,2013-03-05 13:42:00,
2013-03-05 08:52:00,54.0,47.0,30.17,South,186,3.0,6.0,76,99.99,,,-99.99,,2013-03-05 13:52:00,
2013-03-05 09:02:00,56.0,48.0,30.17,SW,225,4.0,8.0,74,99.99,,,-99.99,,2013-03-05 14:02:00,
2013-03-05 09:11:00,56.0,48.0,30.17,SW,225,4.0,8.0,74,99.99,,,-99.99,,2013-03-05 14:11:00,
2013-03-05 09:22:00,57.0,48.0,30.17,South,186,3.0,6.0,73,99.99,,,-99.99,,2013-03-05 14:22:00,
2013-03-05 09:32:00,58.0,49.0,30.17,South,180,4.0,7.0,71,99.99,,,-99.99,,2013-03-05 14:32:00,
2013-03-05 09:42:00,58.0,49.0,30.17,South,180,4.0,7.0,71,99.99,,,-99.99,,2013-03-05 14:42:00,
2013-03-05 09:52:00,60.0,49.0,30.17,SW,217,5.0,8.0,68,99.99,,,-99.99,,2013-03-05 14:52:00,
2013-03-05 10:02:00,62.0,51.0,30.17,WSW,243,5.0,8.0,67,99.99,,,-99.99,,2013-03-05 15:02:00,
2013-03-05 10:11:00,62.0,51.0,30.17,WSW,243,5.0,8.0,67,99.99,,,-99.99,,2013-03-05 15:11:00,
2013-03-05 10:21:00,62.0,50.0,30.17,WSW,238,5.0,10.0,64,99.99,,,-99.99,,2013-03-05 15:21:00,
2013-03-05 10:32:00,64.0,52.0,30.17,SW,218,7.0,9.0,64,99.99,,,-99.99,,2013-03-05 15:32:00,
2013-03-05 10:42:00,64.0,52.0,30.17,SW,218,7.0,9.0,64,99.99,,,-99.99,,2013-03-05 15:42:00,
2013-03-05 10:52:00,66.0,53.0,30.17,SW,215,6.0,14.0,64,99.99,,,-99.99,,2013-03-05 15:52:00,
2013-03-05 11:01:00,66.0,53.0,30.17,WSW,249,8.0,13.0,63,99.99,,,-99.99,,2013-03-05 16:01:00,
2013-03-05 11:11:00,66.0,53.0,30.17,WSW,249,8.0,13.0,63,99.99,,,-99.99,,2013-03-05 16:11:00,
2013-03-05 11:21:00,67.0,54.0,30.17,SW,231,7.0,14.0,63,99.99,,,-99.99,,2013-03-05 16:21:00,
2013-03-05 11:32:00,68.0,54.0,30.16,SW,229,8.0,13.0,60,99.99,,,-99.99,,2013-03-05 16:32:00,
2013-03-05 11:42:00,68.0,54.0,30.16,SW,229,8.0,13.0,60,99.99,,,-99.99,,2013-03-05 16:42:00,
2013-03-05 11:52:00,68.0,53.0,30.16,SW,221,7.0,14.0,58,99.99,,,-99.99,,2013-03-05 16:52:00,
2013-03-05 12:01:00,70.0,55.0,30.15,SW,231,7.0,13.0,58,99.99,,,-99.99,,2013-03-05 17:01:00,
2013-03-05 12:11:00,70.0,55.0,30.15,SW,231,7.0,13.0,58,99.99,,,-99.99,,2013-03-05 17:11:00,
2013-03-05 12:21:00,70.0,52.0,30.15,West,262,6.0,11.0,52,99.99,,,-99.99,,2013-03-05 17:21:00,
2013-03-05 12:32:00,71.0,52.0,30.14,SW,231,6.0,11.0,51,99.99,,,-99.99,,2013-03-05 17:32:00,
2013-03-05 12:42:00,71.0,52.0,30.14,SW,231,6.0,11.0,51,99.99,,,-99.99,,2013-03-05 17:42:00,
2013-03-05 12:53:00,71.0,52.0,30.14,SW,228,7.0,10.0,52,99.99,,,-99.99,,2013-03-05 17:53:00,
2013-03-05 13:02:00,72.0,51.0,30.13,SSW,210,6.0,11.0,47,99.99,,,-99.99,,2013-03-05 18:02:00,
2013-03-05 13:11:00,72.0,51.0,30.13,SSW,210,6.0,11.0,47,99.99,,,-99.99,,2013-03-05 18:11:00,
2013-03-05 13:22:00,73.0,50.0,30.12,WSW,256,7.0,15.0,44,99.99,,,-99.99,,2013-03-05 18:22:00,
2013-03-05 13:32:00,74.0,50.0,30.11,WSW,255,7.0,9.0,43,99.99,,,-99.99,,2013-03-05 18:32:00,
2013-03-05 13:42:00,74.0,50.0,30.11,WSW,255,7.0,9.0,43,99.99,,,-99.99,,2013-03-05 18:42:00,
2013-03-05 13:53:00,74.0,50.0,30.10,West,266,6.0,10.0,43,99.99,,,-99.99,,2013-03-05 18:53:00,
2013-03-05 14:01:00,75.0,52.0,30.10,WSW,248,7.0,11.0,44,99.99,,,-99.99,,2013-03-05 19:01:00,
2013-03-05 14:11:00,75.0,52.0,30.10,WSW,248,7.0,11.0,44,99.99,,,-99.99,,2013-03-05 19:11:00,
2013-03-05 14:21:00,75.0,50.0,30.09,WNW,290,7.0,13.0,41,99.99,,,-99.99,,2013-03-05 19:21:00,
2013-03-05 14:32:00,75.0,48.0,30.09,WSW,243,7.0,12.0,39,99.99,,,-99.99,,2013-03-05 19:32:00,
2013-03-05 14:42:00,75.0,48.0,30.09,WSW,243,7.0,12.0,39,99.99,,,-99.99,,2013-03-05 19:42:00,
2013-03-05 14:52:00,75.0,50.0,30.08,West,281,9.0,15.0,41,99.99,,,-99.99,,2013-03-05 19:52:00,
2013-03-05 15:01:00,76.0,51.0,30.07,West,263,7.0,11.0,41,99.99,,,-99.99,,2013-03-05 20:01:00,
2013-03-05 15:11:00,77.0,49.0,30.08,WSW,250,7.0,13.0,38,99.99,,,-99.99,,2013-03-05 20:11:00,
2013-03-05 15:22:00,77.0,49.0,30.08,WSW,250,7.0,13.0,38,99.99,,,-99.99,,2013-03-05 20:22:00,
2013-03-05 15:32:00,76.0,49.0,30.08,West,269,9.0,17.0,39,99.99,,,-99.99,,2013-03-05 20:32:00,
2013-03-05 15:42:00,76.0,49.0,30.08,West,269,9.0,17.0,39,99.99,,,-99.99,,2013-03-05 20:42:00,
2013-03-05 15:52:00,76.0,47.0,30.07,West,263,8.0,14.0,36,99.99,,,-99.99,,2013-03-05 20:52:00,
2013-03-05 16:02:00,76.0,47.0,30.07,West,278,8.0,15.0,36,99.99,,,-99.99,,2013-03-05 21:02:00,
2013-03-05 16:11:00,76.0,47.0,30.07,West,278,8.0,15.0,36,99.99,,,-99.99,,2013-03-05 21:11:00,
2013-03-05 16:22:00,76.0,47.0,30.08,West,260,9.0,13.0,36,99.99,,,-99.99,,2013-03-05 21:22:00,
2013-03-05 16:32:00,75.0,45.0,30.08,West,266,9.0,16.0,35,99.99,,,-99.99,,2013-03-05 21:32:00,
2013-03-05 16:42:00,75.0,45.0,30.08,West,266,9.0,16.0,35,99.99,,,-99.99,,2013-03-05 21:42:00,
2013-03-05 16:52:00,75.0,45.0,30.08,West,262,8.0,15.0,35,99.99,,,-99.99,,2013-03-05 21:52:00,
2013-03-05 17:01:00,75.0,47.0,30.08,West,263,9.0,15.0,37,99.99,,,-99.99,,2013-03-05 22:01:00,
2013-03-05 17:11:00,75.0,47.0,30.08,West,263,9.0,15.0,37,99.99,,,-99.99,,2013-03-05 22:11:00,
2013-03-05 17:22:00,74.0,46.0,30.08,West,259,9.0,13.0,37,99.99,,,-99.99,,2013-03-05 22:22:00,
2013-03-05 17:32:00,73.0,49.0,30.09,WSW,252,8.0,15.0,42,99.99,,,-99.99,,2013-03-05 22:32:00,
2013-03-05 17:42:00,73.0,49.0,30.09,WSW,252,8.0,15.0,42,99.99,,,-99.99,,2013-03-05 22:42:00,
2013-03-05 17:52:00,72.0,51.0,30.08,West,274,9.0,15.0,47,99.99,,,-99.99,,2013-03-05 22:52:00,
2013-03-05 18:01:00,71.0,51.0,30.09,WSW,253,9.0,14.0,49,99.99,,,-99.99,,2013-03-05 23:01:00,
2013-03-05 18:11:00,71.0,51.0,30.09,WSW,253,9.0,14.0,49,99.99,,,-99.99,,2013-03-05 23:11:00,
2013-03-05 18:21:00,70.0,51.0,30.08,West,269,7.0,11.0,51,99.99,,,-99.99,,2013-03-05 23:21:00,
2013-03-05 18:32:00,69.0,53.0,30.08,West,270,8.0,11.0,57,99.99,,,-99.99,,2013-03-05 23:32:00,
2013-03-05 18:42:00,69.0,53.0,30.08,West,270,8.0,11.0,57,99.99,,,-99.99,,2013-03-05 23:42:00,
2013-03-05 18:53:00,67.0,54.0,30.09,West,273,6.0,9.0,62,99.99,,,-99.99,,2013-03-05 23:53:00,
2013-03-05 19:01:00,66.0,54.0,30.08,West,263,5.0,8.0,65,99.99,,,-99.99,,2013-03-06 00:01:00,
2013-03-05 19:11:00,66.0,54.0,30.08,West,263,5.0,8.0,65,99.99,,,-99.99,,2013-03-06 00:11:00,
2013-03-05 19:21:00,65.0,53.0,30.08,WSW,257,6.0,9.0,66,99.99,,,-99.99,,2013-03-06 00:21:00,
2013-03-05 19:32:00,64.0,54.0,30.08,West,270,5.0,7.0,70,99.99,,,-99.99,,2013-03-06 00:32:00,
2013-03-05 19:42:00,64.0,54.0,30.08,West,270,5.0,7.0,70,99.99,,,-99.99,,2013-03-06 00:42:00,
2013-03-05 19:52:00,63.0,54.0,30.08,WSW,245,5.0,6.0,73,99.99,,,-99.99,,2013-03-06 00:52:00,
2013-03-05 20:02:00,62.0,55.0,30.08,West,259,4.0,7.0,78,99.99,,,-99.99,,2013-03-06 01:02:00,
2013-03-05 20:11:00,62.0,55.0,30.08,West,259,4.0,7.0,78,99.99,,,-99.99,,2013-03-06 01:11:00,
2013-03-05 20:21:00,62.0,56.0,30.08,WSW,249,3.0,6.0,80,99.99,,,-99.99,,2013-03-06 01:21:00,
2013-03-05 20:32:00,61.0,56.0,30.08,WSW,252,5.0,7.0,83,99.99,,,-99.99,,2013-03-06 01:32:00,
2013-03-05 20:42:00,61.0,56.0,30.08,WSW,252,5.0,7.0,83,99.99,,,-99.99,,2013-03-06 01:42:00,
2013-03-05 20:52:00,61.0,56.0,30.07,SW,222,4.0,6.0,85,99.99,,,-99.99,,2013-03-06 01:52:00,
2013-03-05 21:01:00,61.0,57.0,30.07,SW,226,3.0,6.0,87,99.99,,,-99.99,,2013-03-06 02:01:00,
2013-03-05 21:11:00,61.0,57.0,30.07,SW,226,3.0,6.0,87,99.99,,,-99.99,,2013-03-06 02:11:00,
2013-03-05 21:22:00,60.0,57.0,30.07,SSW,211,3.0,6.0,91,99.99,,,-99.99,,2013-03-06 02:22:00,
2013-03-05 21:32:00,60.0,58.0,30.07,SW,221,3.0,7.0,94,99.99,,,-99.99,,2013-03-06 02:32:00,
2013-03-05 21:42:00,60.0,58.0,30.07,SW,221,3.0,7.0,94,99.99,,,-99.99,,2013-03-06 02:42:00,
2013-03-05 21:52:00,60.0,59.0,30.06,South,169,4.0,7.0,96,99.99,,,-99.99,,2013-03-06 02:52:00,
2013-03-05 22:02:00,60.0,59.0,30.06,SW,219,5.0,9.0,98,99.99,,,-99.99,,2013-03-06 03:02:00,
2013-03-05 22:11:00,60.0,59.0,30.06,SW,219,5.0,9.0,98,99.99,,,-99.99,,2013-03-06 03:11:00,
2013-03-05 22:22:00,60.0,60.0,30.06,SW,218,4.0,8.0,100,99.99,,,-99.99,,2013-03-06 03:22:00,
2013-03-05 22:32:00,59.0,59.0,30.07,SW,221,4.0,8.0,100,99.99,,,-99.99,,2013-03-06 03:32:00,
2013-03-05 22:42:00,59.0,59.0,30.07,SW,221,4.0,8.0,100,99.99,,,-99.99,,2013-03-06 03:42:00,
2013-03-05 22:52:00,59.0,59.0,30.06,SW,215,4.0,7.0,100,99.99,,,-99.99,,2013-03-06 03:52:00,
2013-03-05 23:02:00,59.0,59.0,30.06,South,184,4.0,7.0,100,99.99,,,-99.99,,2013-03-06 04:02:00,
2013-03-05 23:11:00,59.0,59.0,30.06,South,184,4.0,7.0,100,99.99,,,-99.99,,2013-03-06 04:11:00,
2013-03-05 23:22:00,59.0,59.0,30.06,SSW,195,5.0,8.0,100,99.99,,,-99.99,,2013-03-06 04:22:00,
2013-03-05 23:32:00,59.0,59.0,30.06,SW,217,5.0,9.0,100,99.99,,,-99.99,,2013-03-06 04:32:00,
2013-03-05 23:42:00,59.0,59.0,30.06,SW,217,5.0,9.0,100,99.99,,,-99.99,,2013-03-06 04:42:00,
2013-03-05 23:52:00,59.0,59.0,30.05,South,190,5.0,9.0,100,99.99,,,-99.99,,2013-03-06 04:52:00,